contact:dominique.lefevre@mio.osupytheas.fr, maurice.libes@osupytheas.fr, didier.mallarino@osupytheas.fr
Project:EMSO http://www.emso-fr.org/EMSO-France
Depth: 2436.0 m
Title:EMSO Ligure Ouest : Data MII capteur CSTAR
DateTime,Latitude,Longitude,Instrument_Serial,Reference_Counts,Signal_Counts,Corrected_Signal_raw_counts,Calculated_Beam_c_inverse_meters,Internal_thermistor_counts
DateTime,Latitude,Longitude,Instrument_Serial,Reference_Counts,Signal_Counts,Corrected_Signal_raw_counts,Calculated_Beam_c_inverse_meters,Internal_thermistor_counts
2021-04-02T13:10:06,42.805,6.029,CST-1368DR,5760,8055,15054,0.147,551
2021-04-02T13:17:54,42.805,6.029,CST-1368DR,5756,8048,15051,0.147,551
2021-04-02T13:20:55,42.805,6.029,CST-1368DR,5753,8045,15052,0.147,551
2021-04-02T13:23:57,42.805,6.029,CST-1368DR,5752,8044,15052,0.147,550
2021-04-02T13:26:58,42.805,6.029,CST-1368DR,5750,8040,15051,0.147,551
2021-04-02T13:30:00,42.805,6.029,CST-1368DR,5748,8039,15054,0.147,550
2021-04-02T13:33:02,42.805,6.029,CST-1368DR,5747,8037,15053,0.147,550
2021-04-02T13:36:03,42.805,6.029,CST-1368DR,5746,8014,15012,0.158,551
2021-04-02T13:39:05,42.805,6.029,CST-1368DR,5745,8034,15052,0.147,551
2021-04-02T13:42:06,42.805,6.029,CST-1368DR,5744,8032,15051,0.147,551
2021-04-02T13:45:08,42.805,6.029,CST-1368DR,5743,8032,15052,0.147,551
2021-04-02T13:48:09,42.805,6.029,CST-1368DR,5742,8026,15044,0.149,551
2021-04-02T13:51:11,42.805,6.029,CST-1368DR,5741,8028,15050,0.148,551
2021-04-02T13:54:13,42.805,6.029,CST-1368DR,5740,8027,15050,0.148,551
2021-04-02T13:57:14,42.805,6.029,CST-1368DR,5740,8026,15050,0.148,551
2021-04-02T14:00:16,42.805,6.029,CST-1368DR,5739,8024,15048,0.148,551
2021-04-02T14:03:17,42.805,6.029,CST-1368DR,5738,8024,15050,0.148,551
2021-04-02T14:06:19,42.805,6.029,CST-1368DR,5737,8022,15050,0.148,551
2021-04-02T14:09:20,42.805,6.029,CST-1368DR,5737,8022,15048,0.148,551
2021-04-02T14:12:22,42.805,6.029,CST-1368DR,5736,8020,15048,0.148,551
2021-04-02T14:15:24,42.805,6.029,CST-1368DR,5735,8019,15048,0.148,551
2021-04-02T14:18:25,42.805,6.029,CST-1368DR,5735,8017,15044,0.149,551
2021-04-02T14:21:27,42.805,6.029,CST-1368DR,5734,8012,15038,0.151,551
2021-04-02T14:24:28,42.805,6.029,CST-1368DR,5733,8017,15050,0.148,551
2021-04-02T14:27:30,42.805,6.029,CST-1368DR,5733,8016,15048,0.148,551
2021-04-02T14:30:32,42.805,6.029,CST-1368DR,5732,8016,15049,0.148,551
2021-04-02T14:33:33,42.805,6.029,CST-1368DR,5731,8014,15049,0.148,551
2021-04-02T14:36:35,42.805,6.029,CST-1368DR,5731,8013,15047,0.148,551
2021-04-02T14:39:36,42.805,6.029,CST-1368DR,5730,8009,15043,0.150,551
2021-04-02T14:42:38,42.805,6.029,CST-1368DR,5730,8011,15046,0.149,550
2021-04-02T14:45:39,42.805,6.029,CST-1368DR,5729,8011,15049,0.148,551
2021-04-02T14:48:41,42.805,6.029,CST-1368DR,5729,8010,15046,0.149,551
2021-04-02T14:51:43,42.805,6.029,CST-1368DR,5728,8009,15046,0.149,551
2021-04-02T14:54:44,42.805,6.029,CST-1368DR,5727,8008,15047,0.148,551
2021-04-02T14:57:46,42.805,6.029,CST-1368DR,5727,8007,15045,0.149,551
2021-04-02T15:00:47,42.805,6.029,CST-1368DR,5726,8007,15048,0.148,551
2021-04-02T15:03:49,42.805,6.029,CST-1368DR,5726,8006,15046,0.149,551
2021-04-02T15:06:51,42.805,6.029,CST-1368DR,5725,8006,15049,0.148,551
2021-04-02T15:09:52,42.805,6.029,CST-1368DR,5725,8004,15045,0.149,551
2021-04-02T15:12:54,42.805,6.029,CST-1368DR,5724,8004,15047,0.148,551
2021-04-02T15:15:55,42.805,6.029,CST-1368DR,5723,8001,15045,0.149,551
2021-04-02T15:18:57,42.805,6.029,CST-1368DR,5723,8001,15045,0.149,550
2021-04-02T15:21:58,42.805,6.029,CST-1368DR,5723,8001,15044,0.149,551
2021-04-02T15:25:00,42.805,6.029,CST-1368DR,5722,8000,15046,0.149,551
2021-04-02T15:28:02,42.805,6.029,CST-1368DR,5722,8000,15044,0.149,551
2021-04-02T15:31:03,42.805,6.029,CST-1368DR,5721,8000,15047,0.148,551
2021-04-02T15:34:05,42.805,6.029,CST-1368DR,5721,8000,15047,0.148,550
2021-04-02T15:37:06,42.805,6.029,CST-1368DR,5720,7998,15047,0.148,551
2021-04-02T15:40:08,42.805,6.029,CST-1368DR,5720,7993,15037,0.151,551
2021-04-02T15:43:09,42.805,6.029,CST-1368DR,5719,7996,15045,0.149,550
2021-04-02T15:46:11,42.805,6.029,CST-1368DR,5719,7997,15046,0.149,551
2021-04-02T15:49:13,42.805,6.029,CST-1368DR,5719,7993,15038,0.151,551
2021-04-02T15:52:14,42.805,6.029,CST-1368DR,5718,7991,15038,0.151,551
2021-04-02T15:55:16,42.805,6.029,CST-1368DR,5718,7994,15043,0.150,551
2021-04-02T15:58:17,42.805,6.029,CST-1368DR,5717,7994,15045,0.149,551
2021-04-02T16:01:19,42.805,6.029,CST-1368DR,5717,7993,15043,0.150,551
2021-04-02T16:04:21,42.805,6.029,CST-1368DR,5716,7990,15040,0.150,551
2021-04-02T16:07:22,42.805,6.029,CST-1368DR,5716,7992,15044,0.149,550
2021-04-02T16:10:24,42.805,6.029,CST-1368DR,5715,7990,15043,0.150,551
2021-04-02T16:13:25,42.805,6.029,CST-1368DR,5715,7974,15013,0.158,551
2021-04-02T16:16:27,42.805,6.029,CST-1368DR,5715,7990,15043,0.150,551
2021-04-02T16:19:28,42.805,6.029,CST-1368DR,5714,7989,15043,0.150,551
2021-04-02T16:22:30,42.805,6.029,CST-1368DR,5714,7990,15045,0.149,551
2021-04-02T16:25:32,42.805,6.029,CST-1368DR,5713,7986,15040,0.150,551
2021-04-02T16:28:33,42.805,6.029,CST-1368DR,5713,7990,15048,0.148,551
2021-04-02T16:31:35,42.805,6.029,CST-1368DR,5713,7988,15044,0.149,551
2021-04-02T16:34:36,42.805,6.029,CST-1368DR,5712,7988,15046,0.149,551
2021-04-02T16:37:38,42.805,6.029,CST-1368DR,5712,7981,15033,0.152,551
2021-04-02T16:40:40,42.805,6.029,CST-1368DR,5711,7986,15047,0.148,551
2021-04-02T16:43:41,42.805,6.029,CST-1368DR,5711,7987,15047,0.148,551
2021-04-02T16:46:43,42.805,6.029,CST-1368DR,5711,7984,15042,0.150,551
2021-04-02T16:49:44,42.805,6.029,CST-1368DR,5710,7984,15045,0.149,551
2021-04-02T16:52:46,42.805,6.029,CST-1368DR,5710,7984,15045,0.149,551
2021-04-02T16:55:47,42.805,6.029,CST-1368DR,5709,7973,15027,0.154,551
2021-04-02T16:58:49,42.805,6.029,CST-1368DR,5709,7982,15043,0.150,551
2021-04-02T17:01:51,42.805,6.029,CST-1368DR,5709,7982,15044,0.149,551
2021-04-02T17:04:52,42.805,6.029,CST-1368DR,5709,7981,15042,0.150,551
2021-04-02T17:07:54,42.805,6.029,CST-1368DR,5708,7979,15041,0.150,550
2021-04-02T17:10:55,42.805,6.029,CST-1368DR,5708,7982,15045,0.149,551
2021-04-02T17:13:57,42.805,6.029,CST-1368DR,5707,7979,15043,0.150,550
2021-04-02T17:16:58,42.805,6.029,CST-1368DR,5707,7980,15045,0.149,551
2021-04-02T17:20:00,42.805,6.029,CST-1368DR,5707,7980,15044,0.149,551
2021-04-02T17:23:02,42.805,6.029,CST-1368DR,5706,7980,15046,0.149,551
2021-04-02T17:26:03,42.805,6.029,CST-1368DR,5706,7980,15047,0.148,551
2021-04-02T17:29:05,42.805,6.029,CST-1368DR,5706,7979,15044,0.149,551
2021-04-02T17:32:06,42.805,6.029,CST-1368DR,5705,7979,15047,0.148,551
2021-04-02T17:35:08,42.805,6.029,CST-1368DR,5705,7979,15047,0.148,551
2021-04-02T17:38:10,42.805,6.029,CST-1368DR,5705,7977,15045,0.149,551
2021-04-02T17:41:11,42.805,6.029,CST-1368DR,5704,7976,15045,0.149,551
2021-04-02T17:44:13,42.805,6.029,CST-1368DR,5704,7976,15045,0.149,551
2021-04-02T17:47:14,42.805,6.029,CST-1368DR,5704,7977,15046,0.149,551
2021-04-02T17:50:16,42.805,6.029,CST-1368DR,5703,7974,15043,0.150,551
2021-04-02T17:53:17,42.805,6.029,CST-1368DR,5703,7973,15042,0.150,551
2021-04-02T17:56:19,42.805,6.029,CST-1368DR,5703,7974,15043,0.150,551
2021-04-02T17:59:21,42.805,6.029,CST-1368DR,5702,7972,15042,0.150,551
2021-04-02T18:02:22,42.805,6.029,CST-1368DR,5702,7973,15044,0.149,551
2021-04-02T18:05:24,42.805,6.029,CST-1368DR,5702,7971,15040,0.150,551
2021-04-02T18:08:25,42.805,6.029,CST-1368DR,5701,7972,15045,0.149,551
2021-04-02T18:15:06,42.805,6.029,CST-1368DR,5701,7969,15038,0.151,551
2021-04-02T18:18:08,42.805,6.029,CST-1368DR,5700,7969,15042,0.150,551
2021-04-02T18:21:10,42.805,6.029,CST-1368DR,5700,7968,15040,0.150,551
2021-04-02T18:24:11,42.805,6.029,CST-1368DR,5700,7969,15042,0.150,551
2021-04-02T18:27:13,42.805,6.029,CST-1368DR,5699,7967,15041,0.150,551
2021-04-02T18:30:14,42.805,6.029,CST-1368DR,5699,7966,15037,0.151,551
2021-04-02T18:33:16,42.805,6.029,CST-1368DR,5699,7963,15032,0.152,551
2021-04-02T18:36:17,42.805,6.029,CST-1368DR,5698,7968,15044,0.149,551
2021-04-02T18:39:19,42.805,6.029,CST-1368DR,5698,7961,15032,0.152,551
2021-04-02T18:42:21,42.805,6.029,CST-1368DR,5698,7967,15042,0.150,551
2021-04-02T18:45:22,42.805,6.029,CST-1368DR,5697,7966,15044,0.149,551
2021-04-02T18:48:24,42.805,6.029,CST-1368DR,5697,7966,15043,0.150,551
2021-04-02T18:51:25,42.805,6.029,CST-1368DR,5697,7966,15043,0.150,551
2021-04-02T18:54:27,42.805,6.029,CST-1368DR,5697,7961,15034,0.152,551
2021-04-02T18:57:29,42.805,6.029,CST-1368DR,5696,7964,15041,0.150,551
2021-04-02T19:00:30,42.805,6.029,CST-1368DR,5696,7964,15042,0.150,551
2021-04-02T19:03:32,42.805,6.029,CST-1368DR,5696,7963,15041,0.150,551
2021-04-02T19:06:33,42.805,6.029,CST-1368DR,5695,7961,15039,0.151,551
2021-04-02T19:09:35,42.805,6.029,CST-1368DR,5695,7962,15041,0.150,551
2021-04-02T19:12:36,42.805,6.029,CST-1368DR,5695,7963,15042,0.150,551
2021-04-02T19:15:38,42.805,6.029,CST-1368DR,5694,7962,15043,0.150,551
2021-04-02T19:18:40,42.805,6.029,CST-1368DR,5694,7963,15045,0.149,551
2021-04-02T19:21:41,42.805,6.029,CST-1368DR,5694,7961,15042,0.150,551
2021-04-02T19:24:43,42.805,6.029,CST-1368DR,5693,7959,15041,0.150,551
2021-04-02T19:27:44,42.805,6.029,CST-1368DR,5693,7959,15040,0.150,551
2021-04-02T19:30:46,42.805,6.029,CST-1368DR,5693,7960,15041,0.150,551
2021-04-02T19:33:48,42.805,6.029,CST-1368DR,5693,7959,15041,0.150,551
2021-04-02T19:36:49,42.805,6.029,CST-1368DR,5692,7959,15043,0.150,551
2021-04-02T19:39:51,42.805,6.029,CST-1368DR,5692,7958,15041,0.150,551
2021-04-02T19:42:52,42.805,6.029,CST-1368DR,5692,7958,15041,0.150,551
2021-04-02T19:45:54,42.805,6.029,CST-1368DR,5691,7958,15043,0.150,551
2021-04-02T19:48:55,42.805,6.029,CST-1368DR,5691,7956,15040,0.150,551
2021-04-02T19:51:57,42.805,6.029,CST-1368DR,5691,7957,15041,0.150,551
2021-04-02T19:54:59,42.805,6.029,CST-1368DR,5690,7957,15043,0.150,551
2021-04-02T19:58:00,42.805,6.029,CST-1368DR,5690,7954,15038,0.151,551
2021-04-02T20:01:02,42.805,6.029,CST-1368DR,5690,7956,15042,0.150,550
2021-04-02T20:04:03,42.805,6.029,CST-1368DR,5690,7955,15041,0.150,551
2021-04-02T20:07:05,42.805,6.029,CST-1368DR,5689,7953,15038,0.151,551
2021-04-02T20:10:06,42.805,6.029,CST-1368DR,5689,7955,15042,0.150,550
2021-04-02T20:13:08,42.805,6.029,CST-1368DR,5689,7950,15032,0.152,551
2021-04-02T20:16:10,42.805,6.029,CST-1368DR,5689,7954,15041,0.150,551
2021-04-02T20:19:11,42.805,6.029,CST-1368DR,5688,7954,15043,0.150,551
2021-04-02T20:22:13,42.805,6.029,CST-1368DR,5688,7952,15039,0.151,551
2021-04-02T20:25:14,42.805,6.029,CST-1368DR,5688,7953,15041,0.150,551
2021-04-02T20:28:16,42.805,6.029,CST-1368DR,5688,7953,15041,0.150,551
2021-04-02T20:31:18,42.805,6.029,CST-1368DR,5687,7948,15035,0.152,551
2021-04-02T20:34:19,42.805,6.029,CST-1368DR,5687,7952,15042,0.150,551
2021-04-02T20:37:21,42.805,6.029,CST-1368DR,5687,7952,15042,0.150,551
2021-04-02T20:40:22,42.805,6.029,CST-1368DR,5686,7952,15043,0.150,551
2021-04-02T20:43:24,42.805,6.029,CST-1368DR,5686,7951,15042,0.150,551
2021-04-02T20:46:25,42.805,6.029,CST-1368DR,5686,7951,15042,0.150,551
2021-04-02T20:49:27,42.805,6.029,CST-1368DR,5686,7948,15036,0.151,551
2021-04-02T20:52:29,42.805,6.029,CST-1368DR,5685,7947,15038,0.151,551
2021-04-02T20:55:30,42.805,6.029,CST-1368DR,5685,7950,15042,0.150,551
2021-04-02T20:58:32,42.805,6.029,CST-1368DR,5685,7949,15040,0.150,551
2021-04-02T21:01:33,42.805,6.029,CST-1368DR,5684,7949,15044,0.149,551
2021-04-02T21:04:35,42.805,6.029,CST-1368DR,5684,7948,15042,0.150,551
2021-04-02T21:07:36,42.805,6.029,CST-1368DR,5684,7946,15037,0.151,551
2021-04-02T21:10:38,42.805,6.029,CST-1368DR,5684,7947,15039,0.151,551
2021-04-02T21:13:40,42.805,6.029,CST-1368DR,5683,7947,15042,0.150,551
2021-04-02T21:16:41,42.805,6.029,CST-1368DR,5683,7946,15041,0.150,551
2021-04-02T21:19:43,42.805,6.029,CST-1368DR,5683,7945,15039,0.151,551
2021-04-02T21:22:44,42.805,6.029,CST-1368DR,5683,7945,15039,0.151,551
2021-04-02T21:25:46,42.805,6.029,CST-1368DR,5682,7945,15041,0.150,551
2021-04-02T21:28:48,42.805,6.029,CST-1368DR,5682,7945,15041,0.150,550
2021-04-02T21:31:49,42.805,6.029,CST-1368DR,5682,7942,15036,0.151,551
2021-04-02T21:34:51,42.805,6.029,CST-1368DR,5682,7943,15037,0.151,551
2021-04-02T21:37:52,42.805,6.029,CST-1368DR,5681,7944,15041,0.150,551
2021-04-02T21:40:54,42.805,6.029,CST-1368DR,5681,7942,15038,0.151,551
2021-04-02T21:43:55,42.805,6.029,CST-1368DR,5681,7938,15030,0.153,551
2021-04-02T21:46:57,42.805,6.029,CST-1368DR,5681,7939,15032,0.152,551
2021-04-02T21:49:59,42.805,6.029,CST-1368DR,5680,7942,15041,0.150,551
2021-04-02T21:53:00,42.805,6.029,CST-1368DR,5680,7942,15040,0.150,551
2021-04-02T21:56:02,42.805,6.029,CST-1368DR,5680,7941,15039,0.151,551
2021-04-02T21:59:03,42.805,6.029,CST-1368DR,5680,7941,15039,0.151,551
2021-04-02T22:02:05,42.805,6.029,CST-1368DR,5680,7940,15037,0.151,551
2021-04-02T22:05:07,42.805,6.029,CST-1368DR,5679,7940,15040,0.150,550
2021-04-02T22:08:08,42.805,6.029,CST-1368DR,5679,7940,15038,0.151,551
2021-04-02T22:11:10,42.805,6.029,CST-1368DR,5679,7939,15037,0.151,551
2021-04-02T22:14:11,42.805,6.029,CST-1368DR,5678,7936,15034,0.152,551
2021-04-02T22:17:13,42.805,6.029,CST-1368DR,5678,7939,15039,0.151,551
2021-04-02T22:20:14,42.805,6.029,CST-1368DR,5678,7939,15039,0.151,551
2021-04-02T22:23:16,42.805,6.029,CST-1368DR,5678,7937,15036,0.151,551
2021-04-02T22:26:18,42.805,6.029,CST-1368DR,5678,7938,15037,0.151,551
2021-04-02T22:29:19,42.805,6.029,CST-1368DR,5677,7939,15041,0.150,551
2021-04-02T22:32:21,42.805,6.029,CST-1368DR,5677,7938,15040,0.150,551
2021-04-02T22:35:22,42.805,6.029,CST-1368DR,5677,7938,15040,0.150,551
2021-04-02T22:38:24,42.805,6.029,CST-1368DR,5677,7937,15038,0.151,551
2021-04-02T22:41:25,42.805,6.029,CST-1368DR,5676,7933,15033,0.152,551
2021-04-02T22:44:27,42.805,6.029,CST-1368DR,5676,7928,15024,0.155,551
2021-04-02T22:47:29,42.805,6.029,CST-1368DR,5676,7936,15040,0.150,551
2021-04-02T22:50:30,42.805,6.029,CST-1368DR,5675,7935,15039,0.151,551
2021-04-02T22:53:32,42.805,6.029,CST-1368DR,5675,7935,15040,0.150,551
2021-04-02T22:56:33,42.805,6.029,CST-1368DR,5675,7935,15039,0.151,551
2021-04-02T22:59:35,42.805,6.029,CST-1368DR,5675,7933,15036,0.151,551
2021-04-02T23:02:37,42.805,6.029,CST-1368DR,5674,7934,15039,0.151,550
2021-04-02T23:05:38,42.805,6.029,CST-1368DR,5674,7933,15039,0.151,551
2021-04-02T23:08:40,42.805,6.029,CST-1368DR,5674,7932,15037,0.151,551
2021-04-02T23:11:41,42.805,6.029,CST-1368DR,5674,7931,15035,0.152,551
2021-04-02T23:14:43,42.805,6.029,CST-1368DR,5673,7932,15039,0.151,551
2021-04-02T23:17:44,42.805,6.029,CST-1368DR,5673,7929,15034,0.152,551
2021-04-02T23:20:46,42.805,6.029,CST-1368DR,5673,7932,15039,0.151,551
2021-04-02T23:23:48,42.805,6.029,CST-1368DR,5673,7932,15039,0.151,551
2021-04-02T23:26:49,42.805,6.029,CST-1368DR,5673,7932,15039,0.151,551
2021-04-02T23:29:51,42.805,6.029,CST-1368DR,5673,7932,15040,0.150,551
2021-04-02T23:32:52,42.805,6.029,CST-1368DR,5672,7932,15041,0.150,551
2021-04-02T23:35:54,42.805,6.029,CST-1368DR,5672,7930,15038,0.151,551
2021-04-02T23:38:55,42.805,6.029,CST-1368DR,5672,7929,15036,0.151,551
2021-04-02T23:41:57,42.805,6.029,CST-1368DR,5672,7931,15039,0.151,551
2021-04-02T23:44:59,42.805,6.029,CST-1368DR,5672,7929,15036,0.151,551
2021-04-02T23:48:00,42.805,6.029,CST-1368DR,5671,7930,15039,0.151,551
2021-04-02T23:51:02,42.805,6.029,CST-1368DR,5671,7930,15040,0.150,551
2021-04-02T23:54:03,42.805,6.029,CST-1368DR,5671,7928,15037,0.151,551
2021-04-02T23:57:05,42.805,6.029,CST-1368DR,5671,7928,15037,0.151,551
